www.pogodaiklimat.ru

Погода и климат >> Архив погоды >> Чехия >> Пардубице


ПОГОДА в Пардубице

  • Прогноз погоды в Пардубице
  • Монитор погоды в Пардубице

АРХИВ ПОГОДЫ в Пардубице

Время (UTC), дата Ветер
(напр.,м/с)
 
Видим.   Явления Облачность Т
(С)
Тd
(С)
f
(%)
Тe
(С)
Тes
(С)
Комфортность P
(гПа)
Po
(гПа)
Тmin
(С)
Tmax
(С)
R
(мм)
R24
(мм)
S
(см)
13 18.06 В 3 25 км 4/1 1500 м
[Cu med, cong Ci sp]
+26.4 +12.7 43 +28 +38 жарко 1015.9 990.2
14 18.06 ЮВ 4 25 км 4/3 1500 м
[Cu med, cong Ci sp]
+26.8 +13.2 43 +29 +34 жарко 1015.1 989.5
15 18.06 В 4 25 км 3/3 1500 м
[Cu med, cong Ci sp]
+27.4 +12.5 40 +29 +33 жарко 1014.3 988.8
16 18.06 В 2 25 км 3/3 1500 м
[Cu med, cong Ci fib]
+27.1 +12.5 40 +29 +32 жарко 1014.0 988.4
17 18.06 В 3 25 км 4/3 1500 м
[Cu med, cong Ci fib]
+26.8 +13.1 43 +29 +30 жарко 1013.7 988.1
18 18.06 В 4 25 км 4/1 1500 м
[Cu med, cong Ci sp]
+25.3 +15.2 54 +28 +29 жарко 1013.8 988.1 +27.8
19 18.06 В 2 25 км 4/0
[Ac trans Ci sp]
+23.1 +15.6 63 +27 +27 душно 1014.1 988.2
20 18.06 В 3 25 км 4/0
[Ac As]
+21.7 +15.1 66 +25 +25 комфорт 1014.5 988.5
21 18.06 В 3 20 км 4/0
[Ac trans]
+20.6 +14.8 69 +24 +24 комфорт 1014.7 988.6
22 18.06 В 2 20 км 4/0
[Ac trans]
+18.4 +14.7 79 +19 +19 1014.6 988.3
23 18.06 В 2 20 км 3/0
[Ac trans]
+17.9 +14.2 79 +18 +18 1014.1 987.8
00 19.06 В 1 20 км ясно +17.4 +14.2 81 +18 +18 1014.2 987.8
01 19.06 СВ 2 20 км ясно +15.8 +13.6 87 +16 +16 1014.3 987.8
02 19.06 В 2 20 км ясно +15.4 +13.2 87 +15 +15 1013.9 987.3
03 19.06 В 1 20 км ясно +15.7 +13.7 88 +16 +16 1013.5 987.0
04 19.06 С 1 20 км 4/0
[Ac trans]
+16.3 +13.8 85 +17 +18 1013.6 987.1
05 19.06 В 1 20 км 4/0
[Ac trans]
+19.5 +14.6 73 +22 +24 комфорт 1013.2 987.0
06 19.06 В 2 20 км 3/0
[Ac trans]
+21.3 +15.4 69 +24 +28 комфорт 1012.9 986.9 +14.7
07 19.06 В 2 20 км 4/0
[Ac trans]
+24.8 +16.4 60 +28 +35 жарко 1012.5 986.8
08 19.06 В 1 20 км 4/1 1000 м
[Cu hum Ac trans]
+26.2 +16.9 57 +30 +40 душно 1012.1 986.6
09 19.06 В 2 20 км 4/4 1230 м
[Cu med, cong]
+27.5 +16.5 51 +31 +40 душно 1011.5 986.1
10 19.06 ЮВ 2 20 км 4/4 1500 м
[Cu med, cong]
+28.6 +14.8 43 +31 +41 жарко 1010.8 985.5
11 19.06 Ю 3 20 км 5/5 1500 м
[Cu med, cong]
+29.4 +14.3 40 +31 +39 жарко 1010.5 985.2
12 19.06 ЮВ 3 20 км 5/5 1500 м
[Cu med, cong]
+30.1 +14.1 38 +32 +39 жарко 1010.0 984.8
13 19.06 Ю 2 20 км 5/5 1500 м
[Cu med, cong]
+30.7 +14.0 36 +32 +40 жарко 1009.4 984.3
14 19.06 С 1 20 км 6/3 1500 м
[Cb calv Ac cuf]
+31.4 +13.4 33 +32 +39 жарко 1008.8 983.7
15 19.06 ЮЗ 2 20 км гроза без осадков 9/4 1500 м
[Cb calv Ac cuf]
+27.3 +14.7 46 +30 +32 душно 1008.7 983.3
16 19.06 СЗ 1 20 км в посл. час гроза 6/3 1500 м
[Cb calv Ac cuf]
+26.9 +14.0 45 +29 +32 жарко 1009.2 983.8
17 19.06 З 4 20 км 8/3 1500 м
[Cb calv Ac cuf]
+24.3 +12.6 48 +26 +27 жарко 1009.9 984.2
18 19.06 ЮЗ 3 20 км {гроза} 8/0
[Ac inh Cs]
+22.5 +13.7 57 +26 +26 жарко 1010.0 984.2 +32.0
19 19.06 ЮВ 4 20 км 8/0
[Ac inh Cs]
+22.6 +13.5 56 +26 +26 жарко 1010.1 984.3
20 19.06 ЮВ 1 20 км в посл. час ливневой дождь 8/0
[Ac inh Cs]
+22.1 +13.6 59 +25 +25 комфорт 1010.7 984.8
21 19.06 З 1 20 км {ливн. осадки} 9/0
[Ac inh]
+21.1 +14.5 66 +24 +24 комфорт 1010.8 984.8
22 19.06 ЮЗ 1 20 км 9/0
[Ac inh]
+19.8 +14.9 73 +23 +23 комфорт 1010.6 984.5
23 19.06 В 2 20 км 9/0
[Ac inh Cs]
+17.9 +14.7 82 +18 +18 1010.8 984.6
00 20.06 С 1 20 км {ливн. осадки} 4/0
[Ac trans Ci fib]
+17.8 +14.2 79 +19 +19 1010.8 984.5 0.0
01 20.06 ЮВ 2 20 км 3/0
[Ci fib]
+16.5 +13.6 83 +17 +17 1011.1 984.7
02 20.06 В 2 20 км 3/0
[Ci fib]
+15.2 +13.0 87 +15 +15 1011.0 984.5
03 20.06 ЮВ 1 20 км 3/0
[Ci fib]
+14.7 +13.0 90 +15 +15 1011.4 984.8
04 20.06 ЮЗ 1 20 км 4/0
[Ac trans Ci]
+14.1 +12.6 91 +14 +15 1011.1 984.5
05 20.06 В 1 20 км 4/0
[Ac trans Ci]
+17.5 +14.0 80 +19 +21 1011.2 984.9
06 20.06 В 1 20 км 4/0
[Ac trans Ci fib]
+20.8 +14.3 66 +25 +30 комфорт 1011.0 985.0 +14.1 0.0
07 20.06 З 2 20 км 5/0
[Ac trans Ci]
+23.0 +14.6 59 +27 +33 душно 1011.3 985.5
08 20.06 З 4 20 км 5/0
[Ac trans Ci fib]
+24.7 +14.2 52 +27 +33 жарко 1011.4 985.7
09 20.06 З 3 20 км 5/0
[Ac trans Ci fib]
+25.3 +15.0 53 +28 +39 жарко 1011.1 985.5
10 20.06 ЮЗ 1 20 км 4/1 1110 м
[Cu hum Ac trans Ci fib]
+26.9 +15.2 49 +30 +45 душно 1010.8 985.3
11 20.06 З 3 20 км 4/1 1200 м
[Cu hum Ac trans]
+28.4 +14.9 44 +31 +42 душно 1010.5 985.2
12 20.06 З 4 20 км 4/1 1300 м
[Cu hum Ac trans]
+28.4 +14.6 43 +31 +39 душно 1010.3 985.0
13 20.06 З 6 20 км 4/4 1410 м
[Cu med, cong Ac trans]
+28.5 +13.6 40 +30 +34 жарко 1009.9 984.6
14 20.06 СЗ 4 20 км 6/4 1500 м
[Cu med, cong Ci ing]
+28.1 +12.6 38 +29 +34 жарко 1009.7 984.3
15 20.06 СЗ 4 20 км 9/4 1500 м
[Cu med, cong Ci ing]
+27.2 +14.3 45 +29 +32 жарко 1009.7 984.3
16 20.06 СЗ 3 20 км 9/3 1500 м
[Cu med, cong Ac cuf Ci ing]
+27.4 +14.4 45 +30 +31 жарко 1009.9 984.5
17 20.06 СЗ 1 25 км 9/1 1500 м
[Cu med, cong Ac cuf Ci ing]
+28.0 +12.9 39 +29 +31 жарко 1009.9 984.5
18 20.06 С 2 20 км 9/1 1500 м
[Cu med, cong Ac cuf Ci ing]
+26.9 +12.9 42 +29 +29 жарко 1010.5 985.0 +29.3
19 20.06 ЮЗ 3 20 км 6/0
[Ac cuf Ci ing]
+24.2 +15.2 57 +27 +27 жарко 1011.0 985.3
20 20.06 З 3 20 км 6/0
[Ac cuf Ci ing]
+22.4 +15.5 65 +26 +26 жарко 1012.0 986.1
21 20.06 Ю 1 20 км 8/0
[Ac cuf Ci ing]
+21.0 +14.3 66 +25 +25 комфорт 1012.3 986.3
22 20.06 ЮВ 1 20 км 9/0
[Ac cuf]
+20.6 +15.3 72 +25 +25 комфорт 1012.8 986.8
23 20.06 З 4 20 км гроза без осадков 9/3 1500 м
[Cb calv Ac cuf]
+20.7 +14.5 68 +24 +24 комфорт 1013.7 987.6
00 21.06 ЮЗ 4 10 км гроза, ливневой дождь 10/10 1200 м
[Cb calv]
+17.7 +16.7 94 +17 +17 1014.6 988.3 4
01 21.06 З 2 10 км слаб. дождь {гроза} 10/10 1500 м
[Sc diur, vesp]
+18.0 +16.9 93 +19 +19 1014.9 988.6
02 21.06 СЗ 2 15 км слаб. дождь 9/5 1500 м
[Sc Ac trans]
+18.1 +17.1 94 +19 +19 1014.5 988.2
03 21.06 Ю 1 20 км в посл. час дождь {гроза} 9/0 2000 м
[Ac As]
+17.6 +16.8 95 +19 +19 1015.0 988.6
04 21.06 штиль 0 20 км 10/1 330 м
[St Ac As]
+17.7 +16.7 94 +18 +18 1015.6 989.2
05 21.06 ЮЗ 1 20 км 10/4 1500 м
[Sc As op]
+17.8 +16.8 94 +19 +19 1015.7 989.3
06 21.06 З 1 20 км {гроза, дождь} 10/0 2000 м
[Ac As]
+18.4 +16.3 88 +20 +22 1015.9 989.6 +17.5 5
07 21.06 ЮЗ 2 20 км 9/3 500 м
[Cu hum Ac inh]
+19.3 +16.4 83 +22 +24 комфорт 1016.2 990.0
08 21.06 З 2 20 км 9/3 500 м
[Cu hum Ac inh]
+20.0 +16.2 79 +23 +26 комфорт 1016.6 990.4
09 21.06 З 2 20 км 9/4 500 м
[Cu med, cong Ac trans]
+20.1 +16.2 78 +23 +28 комфорт 1017.2 991.0
10 21.06 З 3 20 км 8/5 500 м
[Cu med, cong Ac trans]
+21.1 +16.4 75 +25 +29 комфорт 1017.0 990.9
11 21.06 З 2 20 км 6/4 660 м
[Cu med, cong Ac trans]
+23.2 +16.4 66 +28 +37 душно 1016.7 990.8
12 21.06 С 2 20 км 4/4 870 м
[Cu med, cong]
+24.5 +15.4 57 +27 +38 жарко 1016.1 990.3
13 21.06 З 2 20 км 4/4 1140 м
[Cu med, cong]
+26.0 +15.5 52 +29 +38 душно 1015.3 989.7
14 21.06 СЗ 2 20 км 6/4 1380 м
[Cu med, cong Ci fib]
+26.3 +14.2 47 +29 +35 жарко 1014.8 989.2
15 21.06 СЗ 4 20 км 6/4 1500 м
[Cu med, cong Ci fib]
+25.7 +14.7 51 +28 +31 жарко 1015.1 989.4
16 21.06 С 4 20 км 6/4 1500 м
[Cu med, cong Ci fib]
+25.1 +13.9 50 +27 +29 жарко 1015.3 989.6
17 21.06 СВ 3 20 км 5/3 1500 м
[Cu med, cong Ci fib]
+24.3 +15.2 57 +27 +28 жарко 1015.7 989.9
18 21.06 ЮВ 3 20 км 5/0
[Ac trans Ci fib]
+22.7 +15.9 65 +27 +27 душно 1016.1 990.2 +26.8
19 21.06 ЮЗ 1 20 км 4/0
[Ac trans Ci fib]
+21.2 +15.8 71 +24 +24 комфорт 1016.8 990.7
20 21.06 штиль 0 20 км 4/0
[Ac trans Ci fib]
+19.9 +15.8 77 +22 +22 комфорт 1017.8 991.6
21 21.06 ЮЗ 1 20 км 4/0
[Ac trans Ci fib]
+17.8 +15.6 87 +19 +19 1018.4 992.0
22 21.06 Ю 1 20 км 6/0
[Ac trans Ci fib]
+17.9 +16.0 89 +19 +19 1018.6 992.2
23 21.06 ЮВ 2 20 км 9/0
[Ac trans Ci fib]
+17.2 +15.7 91 +18 +18 1018.9 992.4
00 22.06 З 1 20 км 9/0
[Ac trans Ci fib]
+17.2 +15.2 88 +18 +18 1018.8 992.3
01 22.06 ЮВ 1 20 км 6/0
[Ci fib]
+15.6 +14.5 93 +16 +16 1019.3 992.6
02 22.06 З 1 20 км 6/0
[Ci fib]
+14.9 +13.6 92 +15 +15 1019.6 992.8
03 22.06 ЮВ 2 10 км 6/0
[Ac trans]
+15.4 +14.6 95 +15 +15 1019.6 992.9
04 22.06 СВ 1 20 км 6/0
[Ac trans]
+15.8 +14.7 93 +16 +17 1019.8 993.1
05 22.06 В 1 20 км 6/0
[Ac trans]
+17.4 +15.6 89 +18 +20 1020.1 993.6
06 22.06 В 2 20 км 6/0
[Ac trans]
+20.2 +15.4 74 +23 +26 комфорт 1020.0 993.7 +14.9
07 22.06 СВ 2 20 км 9/0
[Ac und]
+21.3 +15.3 69 +24 +27 комфорт 1020.1 993.9
08 22.06 В 3 20 км 6/1 800 м
[Cu hum Ac trans]
+23.5 +15.8 62 +27 +33 душно 1019.7 993.7
09 22.06 В 5 20 км 6/4 900 м
[Cu med, cong Ac trans]
+23.2 +14.5 58 +27 +31 душно 1019.6 993.6
10 22.06 В 5 20 км 6/5 1110 м
[Cu med, cong Ac trans Ci fib]
+25.2 +14.4 51 +28 +32 жарко 1019.3 993.5
11 22.06 В 6 20 км 8/5 1200 м
[Cu med, cong Ac und Ci fib]
+24.2 +13.7 52 +26 +29 жарко 1019.3 993.4
12 22.06 СВ 6 20 км 8/3 1350 м
[Cu med, cong Ac As]
+25.6 +13.5 47 +28 +30 жарко 1018.4 992.6
13 22.06 СВ 6 20 км 8/5 1410 м
[Cu med, cong Ac As]
+27.1 +12.7 41 +29 +30 жарко 1017.3 991.7
14 22.06 В 5 20 км 10/6 1500 м
[Cu Sc Ac und]
+25.0 +13.2 48 +27 +28 жарко 1017.4 991.6
15 22.06 В 7 20 км в посл. час ливневой дождь 6/4 1500 м
[Cu Sc Ac trans]
+25.9 +13.0 45 +28 +29 жарко 1017.0 991.3
16 22.06 СВ 6 20 км 8/3 1500 м
[Cu med, cong Ac As]
+24.7 +11.8 44 +26 +27 жарко 1016.5 990.7
17 22.06 СВ 6 20 км 8/5 1500 м
[Sc diur, vesp Ac und]
+24.7 +11.8 44 +26 +26 жарко 1016.3 990.5
18 22.06 СВ 6 20 км {ливн. осадки} 9/5 1500 м
[Sc Ac und]
+23.9 +11.9 47 +26 +26 жарко 1016.4 990.5 +27.1 0.0
19 22.06 СВ 5 20 км 8/3 1500 м
[Sc Ac As]
+23.0 +11.8 49 +25 +25 комфорт 1016.3 990.3
20 22.06 В 4 20 км 6/4 1500 м
[Sc Ac trans]
+20.9 +12.7 59 +23 +23 комфорт 1017.3 991.1
21 22.06 СВ 3 20 км 8/0 2000 м
[Ac und]
+21.3 +11.6 54 +23 +23 комфорт 1017.4 991.3
22 22.06 СВ 4 20 км 9/0
[Ac und]
+20.5 +11.3 56 +22 +22 комфорт 1017.4 991.2
23 22.06 СВ 3 20 км 9/0
[Ac trans]
+20.4 +11.2 55 +22 +22 комфорт 1017.4 991.2
00 23.06 СВ 2 20 км 9/0
[Ac trans]
+20.1 +11.6 58 +22 +22 комфорт 1017.3 991.1
01 23.06 СВ 2 20 км 9/0
[Ac trans]
+19.4 +11.3 59 +21 +21 комфорт 1017.4 991.1
02 23.06 СВ 3 20 км 9/0
[Ac As]
+18.8 +11.1 61 +20 +20 1017.4 991.0
03 23.06 СВ 1 20 км 9/0
[Ac As]
+18.7 +10.8 60 +20 +20 1017.5 991.1
04 23.06 СВ 3 20 км 9/0
[Ac As]
+18.6 +11.2 62 +19 +20 1017.8 991.4
05 23.06 СВ 2 15 км 10/0
[Ac As]
+18.9 +11.6 63 +20 +21 1018.1 991.7
06 23.06 СВ 2 15 км слаб. дождь 10/6 1500 м
[Sc As op]
+18.4 +12.7 69 +19 +20 1018.4 992.0 +18.3 0.0
07 23.06 С 2 20 км слаб. дождь 10/6 1500 м
[Sc As op]
+19.9 +12.9 64 +22 +23 комфорт 1018.6 992.3
08 23.06 Ю 2 20 км 8/4 1500 м
[Sc Ac As]
+21.7 +14.3 63 +25 +29 комфорт 1018.5 992.4
09 23.06 С 4 20 км {дождь} 8/3 930 м
[Cu hum Ac trans]
+23.3 +14.2 57 +27 +31 душно 1018.4 992.4
10 23.06 СВ 4 20 км 8/5 1050 м
[Cu hum Ac trans]
+24.2 +14.6 55 +27 +31 жарко 1018.4 992.5
11 23.06 СВ 5 20 км 10/6 1200 м
[Cu hum As op]
+24.5 +14.3 53 +27 +28 жарко 1018.7 992.8
12 23.06 СВ 5 20 км {дождь} 10/5 1320 м
[Cu hum As op]
+25.4 +13.6 48 +28 +28 жарко 1018.7 992.9 0.0
13 23.06 СВ 6
{11}
20 км 8/5 1440 м
[Cu hum As trans]
+26.5 +13.0 43 +28 +30 жарко 1018.7 993.0
14 23.06 СВ 4
{11}
20 км 6/4 1500 м
[Cu hum Ci sp]
+26.2 +12.8 43 +28 +32 жарко 1018.5 992.8
15 23.06 СВ 5
{11}
20 км 6/4 1500 м
[Cu hum Ci fib]
+26.3 +12.5 42 +28 +30 жарко 1018.2 992.5
16 23.06 СВ 5 20 км 5/3 1500 м
[Cu hum Ci fib]
+25.9 +12.0 42 +27 +29 жарко 1018.4 992.6
17 23.06 СВ 5 20 км 5/3 1500 м
[Cu hum Ci fib]
+25.2 +12.0 44 +27 +27 жарко 1018.5 992.7
18 23.06 СВ 4
{11}
20 км {дождь} 4/1 1500 м
[Cu hum Ci fib]
+24.2 +10.8 43 +25 +26 комфорт 1019.1 993.2 +26.7 0.0
19 23.06 СВ 4 20 км 5/0
[Ac trans Ci fib]
+22.9 +10.6 46 +25 +25 комфорт 1019.8 993.7
20 23.06 С 3 20 км 4/0
[Ci fib]
+21.6 +10.2 48 +23 +23 комфорт 1020.5 994.3
21 23.06 С 2 20 км 3/0
[Ci fib]
+20.4 +10.0 51 +23 +23 комфорт 1021.4 995.1
22 23.06 ЮЗ 1 20 км ясно +16.5 +11.3 71 +17 +17 1022.5 995.8
23 23.06 З 1 20 км ясно +16.1 +11.1 72 +17 +17 1022.3 995.6
00 24.06 штиль 0 20 км 3/0
[Ci fib]
+13.1 +10.9 86 +13 +13 1022.9 995.9
01 24.06 С 1 20 км ясно +13.7 +10.7 82 +14 +14 1022.7 995.7
02 24.06 Ю 1 20 км ясно +12.0 +9.7 86 +12 +12 1023.2 996.0
03 24.06 Ю 1 20 км ясно +11.5 +9.6 88 +11 +11 1023.6 996.4
04 24.06 ЮЗ 1 20 км ясно +12.2 +9.9 86 +12 +13 1023.6 996.5
05 24.06 ЮЗ 1 20 км ясно +15.2 +11.2 77 +16 +18 1023.3 996.5
06 24.06 З 1 25 км 4/0
[Ci fib]
+18.5 +11.2 62 +20 +25 1023.0 996.5 +11.1
07 24.06 С 1 25 км 4/0
[Ci fib]
+21.2 +9.2 46 +22 +31 комфорт 1023.0 996.7
08 24.06 С 1 25 км 4/0
[Ci fib]
+23.2 +9.3 41 +25 +37 комфорт 1023.0 996.9
09 24.06 СЗ 2 25 км 4/0
[Ci fib]
+25.8 +9.5 36 +26 +40 жарко 1022.7 996.8
10 24.06 СВ 2 25 км 3/0
[Ci fib]
+26.4 +9.3 34 +27 +43 жарко 1022.6 996.7
11 24.06 С 2 25 км 4/3 1500 м
[Cu hum Ci fib]
+27.3 +10.4 35 +28 +40 жарко 1022.2 996.4
12 24.06 С 3 25 км 4/3 1500 м
[Cu hum Ci fib]
+27.4 +11.3 37 +28 +38 жарко 1021.7 996.0
13 24.06 В 3 25 км 4/3 1500 м
[Cu hum Ci fib]
+28.5 +11.4 35 +29 +38 жарко 1021.2 995.6
14 24.06 В 2 25 км 4/4 1500 м
[Cu med, cong Ci fib]
+29.0 +12.9 37 +30 +37 жарко 1021.1 995.5
15 24.06 ЮВ 3 25 км 6/6 1500 м
[Cu Sc]
+28.9 +12.8 37 +30 +33 жарко 1021.1 995.5
16 24.06 ЮВ 2 25 км 4/4 1500 м
[Cu Sc]
+28.5 +14.0 41 +30 +33 жарко 1021.1 995.5
17 24.06 ЮВ 2 25 км 4/3 1500 м
[Cu med, cong Ac cuf]
+28.2 +14.4 43 +30 +32 жарко 1021.1 995.5
18 24.06 В 3 25 км 4/0 2000 м
[Ac cuf]
+26.4 +14.3 47 +29 +29 жарко 1021.5 995.7 +29.4
19 24.06 В 3 25 км 3/0
[Ac As]
+25.7 +14.2 49 +28 +28 жарко 1021.9 996.0
20 24.06 В 2 25 км ясно +21.6 +14.9 66 +25 +25 комфорт 1022.7 996.5
21 24.06 ЮВ 2 25 км ясно +19.7 +14.7 73 +22 +22 комфорт 1023.2 996.8
22 24.06 ЮВ 1 25 км ясно +18.5 +14.8 79 +20 +20 1023.3 996.8
23 24.06 В 3 25 км ясно +18.6 +15.1 80 +20 +20 1023.5 997.0
00 25.06 В 1 25 км ясно +15.8 +14.1 90 +16 +16 1023.9 997.1
01 25.06 СВ 1 25 км ясно +16.9 +14.4 85 +18 +18 1023.6 996.9
02 25.06 ЮВ 1 25 км ясно +15.3 +13.6 90 +16 +16 1023.4 996.6
03 25.06 ЮВ 1 20 км ясно +14.0 +12.4 90 +14 +14 1023.6 996.6
04 25.06 Ю 1 20 км ясно +14.9 +13.2 90 +15 +16 1023.6 996.7
05 25.06 В 1 25 км ясно +18.7 +14.6 77 +21 +23 комфорт 1023.4 996.9
06 25.06 В 3 20 км ясно +21.5 +14.4 64 +24 +28 комфорт 1023.0 996.8 +13.6
07 25.06 В 3 20 км ясно +23.2 +15.4 62 +27 +34 душно 1022.9 996.8
08 25.06 В 2 20 км ясно +25.8 +16.4 56 +29 +41 душно 1022.8 997.0
09 25.06 В 2 20 км 3/3 1110 м
[Cu hum]
+27.7 +16.7 51 +31 +42 душно 1022.5 996.8
10 25.06 В 3 20 км 5/5 1230 м
[Cu hum]
+29.0 +17.4 50 +33 +40 очень
душно
1022.1 996.6
11 25.06 ЮВ 5 20 км 5/5 1350 м
[Cu hum]
+30.6 +17.2 45 +35 +39 очень
душно
1021.9 996.5
12 25.06 ЮВ 4 20 км 5/5 1470 м
[Cu hum]
+31.1 +16.8 42 +34 +40 душно 1021.8 996.4
13 25.06 ЮВ 4
{12}
20 км 4/4 1500 м
[Cu hum]
+31.4 +16.5 41 +35 +41 очень
душно
1021.5 996.2

 

Местоположение метеостанции Пардубице (Чехия): широта 50.02 долгота 15.73 высота над уровнем моря 230 м.

В архиве по умолчанию представлена погода в Пардубице за последнюю неделю. Архивные данные за месяц целиком и за предыдущие месяцы, начиная с января 2011 года, Вы можете получить, выбрав интересующий диапазон дат из раскрывающегося списка и нажав кнопку "Ввод!".


*Определитесь, кто Вы:
робот инопланетянин человек

Внимание! Время в таблицах - всемирное. Для получения местного времени необходимо прибавить поправку, которая равна 1 ч.

Смотрите также архив погоды в соседних городах и на ближайших метеорологических станциях:

Погода в Чаславе (Чехия) (27 км)
Погода в Свраточе (Чехия) (39 км)
Погода в Пршибиславе (Чехия) (49 км)
Погода в Усти-над-Орлици (Чехия) (50 км)
Погода в Поломе (Чехия) (56 км)
Погода в Кресин-Крамолине (Чехия) (68 км)
Погода в Пец-под-Снежкой (Чехия) (72 км)
Погода в Клодзко (Польша) (78 км)
Погода на Снежке (Польша) (79 км)
Погода на Снежке (Чехия) (80 км)

Пояснения к столбцам:

Ветер - указаны скорость ветра в м/с - средняя за 10 мин, порывы в срок и между сроками (в фигурных скобках) и направление, откуда дует ветер: С - северный, СВ - северо-восточный, В - восточный, ЮВ - юго-восточный, Ю - южный, ЮЗ - юго-западный, З - западный, СЗ - северо-западный.
Видимость - горизонтальная дальность видимости в метрах или километрах. При видимости от 1 до 10 км при отсутствии осадков обычно наблюдается дымка, при ухудшении видимости до 1 км и менее - туман. В сухую погоду видимость может ухудшаться дымом, пылью или мглою.
Явления - указаны атмосферные явления, наблюдавшиеся в срок или в последний час перед сроком; фигурными скобками обозначены явления, наблюдавшиеся между сроками (за 1-3 часа до срока); квадратными скобками обозначены град или гололедные отложения с указанием их диаметра в мм.
Облачность - указаны через наклонную черту общая и нижняя облачность в баллах и высота нижней границы облаков в метрах; квадратными скобками обозначены формы облаков: Ci - перистые, Cs - перисто-слоистые, Cc - перисто-кучевые, Ac - высококучевые, As - высокослоистые, Sc - слоисто-кучевые, Ns - слоисто-дождевые, Cu - кучевые, Cb - кучево-дождевые. Подробнее классификацию облаков см. в Атласе облаков (PDF).
T - Температура воздуха - температура, измеренная на высоте 2 м над землей.
Td - Температура точки росы - температура, при понижении до которой содержащийся в воздухе водяной пар достигнет насыщения.
f - Относительная влажность воздуха - влажноcть воздуха, измеренная на высоте 2 м над землей.
Te - Эффективная температура - температура, которую ощущает одетый по сезону человек в тени. Характеристика душности погоды. При расчете учитывается влияние влажности воздуха и скорости ветра на теплоощущения человека.
Tes - Эффективная температура на солнце - температура, которую ощущает человек, с поправкой на солнечный нагрев. Характеристика знойности погоды. Зависит от высоты солнца над горизонтом, облачности и скорости ветра. Ночью, в пасмурную погоду, а также при ветре 12 м/с и более поправка равна нулю.
P - Атмосферное давление - приведенное к уровню моря атмосферное давление.
Po - Атмосферное давление - измеренное на уровне метеостанции атмосферное давление.
Tmin - Минимальная температура - минимум температуры воздуха на высоте 2 м над землей.
Tmax - Максимальная температура - максимум температуры воздуха на высоте 2 м над землей.
R - Количество осадков - Количество выпавших осадков за период времени, мм. При наведении курсора мыши на число - период времени, за который выпало указанное количество осадков.
R24 - Количество осадков - Количество выпавших осадков за 24 часа, мм.
S - Снежный покров - Высота снежного покрова, см. При наведении курсора мыши на число - состояние снежного покрова и степень покрытия местности в баллах.